View from above orbital plane
|
View from above satellite
|
Ground track
|
The orbit data is extracted from the following two-line orbital elements,
1 17291U 87001B 21112.68057173 .00000018 00000-0 30661-5 0 9990
2 17291 82.4688 172.1443 0012474 66.6503 293.5968 13.84585421732919
Epoch (UTC): | 22 April 2021 16:20:01 |
Eccentricity: | 0.0012474 |
inclination: | 82.4688° |
perigee height: | 938 km |
apogee height: | 957 km |
right ascension of ascending node: | 172.1443° |
argument of perigee: | 66.6503° |
revolutions per day: | 13.84585421 |
mean anomaly at epoch: | 293.5968° |
orbit number at epoch: | 73291 |
The dashed part of the orbit path shows where the satellite is in the earth's shadow,
|
|